FW2530 Weather Reports


Display with metric or nautical units.
time (UTC)temp
F
wind
direction
speed
MPH
gust
MPH
rain 1hr
in
rain 24hr
in
rain mn
in
humidity
%
barometer
mb
20260903152016 75 130 1.0 4.0 0.00 0.14 0.01 79 1014.3
20260903151516 75 130 2.0 4.0 0.00 0.14 0.01 79 1014.1
20260903151016 75 136 4.0 7.0 0.00 0.14 0.01 79 1014.1
20260903150537 74 138 4.0 7.0 0.00 0.14 0.01 79 1014.1
20260903150016 74 137 3.0 9.0 0.00 0.14 0.01 79 1014.2
20260903145515 74 91 1.0 4.0 0.00 0.14 0.01 79 1014.2
20260903145016 74 18 3.0 5.0 0.00 0.14 0.01 80 1014.2
20260903144516 74 15 3.0 5.0 0.00 0.14 0.01 80 1014.1
20260903144016 74 44 2.0 5.0 0.00 0.14 0.01 80 1014.3
20260903143516 73 39 2.0 4.0 0.00 0.14 0.01 80 1014.4
20260903143016 73 16 3.0 4.0 0.00 0.14 0.01 80 1014.2
20260903142516 73 4 2.0 5.0 0.00 0.14 0.01 80 1014.1
20260903142016 73 360 3.0 4.0 0.00 0.14 0.01 80 1014.2
20260903141515 72 1 2.0 5.0 0.00 0.14 0.01 80 1014.2
20260903141015 73 3 1.0 5.0 0.00 0.14 0.01 80 1014.2
20260903140537 72 360 0.0 1.0 0.00 0.14 0.01 80 1014.2
20260903140037 72 0 0.0 0.0 0.00 0.14 0.01 80 1014.2
20260903135515 72 0 0.0 0.0 0.00 0.14 0.01 80 1014.2
20260903135015 72 0 0.0 0.0 0.00 0.14 0.01 80 1014.1
20260903134537 72 0 0.0 0.0 0.00 0.14 0.01 80 1014.1
20260903134016 72 6 0.0 1.0 0.00 0.14 0.01 80 1014.2
20260903133536 72 6 0.0 3.0 0.00 0.14 0.01 80 1014.1
20260903133016 71 0 0.0 0.0 0.00 0.14 0.01 80 1014.2
20260903132516 71 360 0.0 0.0 0.00 0.14 0.01 80 1014.2
20260903132015 71 360 0.0 1.0 0.00 0.14 0.01 80 1014.3
20260903131515 71 360 0.0 1.0 0.00 0.14 0.01 80 1014.3
20260903131016 71 360 1.0 3.0 0.00 0.14 0.01 80 1014.3
20260903130516 71 360 0.0 3.0 0.00 0.14 0.01 80 1014.6
20260903130015 70 0 0.0 0.0 0.00 0.14 0.01 80 1014.6
20260903125536 70 0 0.0 0.0 0.00 0.14 0.01 80 1014.6
20260903125015 70 360 0.0 0.0 0.00 0.14 0.01 80 1014.6
20260903124537 70 360 0.0 1.0 0.00 0.14 0.01 80 1014.5
20260903124016 70 360 0.0 3.0 0.00 0.14 0.01 79 1014.5
20260903123536 70 360 0.0 3.0 0.00 0.15 0.01 80 1014.6
20260903123016 70 360 0.0 1.0 0.00 0.15 0.01 80 1014.6
20260903122516 69 360 0.0 3.0 0.00 0.15 0.01 80 1014.5
20260903122016 69 360 1.0 3.0 0.00 0.15 0.01 79 1014.5
20260903121516 69 360 0.0 3.0 0.00 0.15 0.01 79 1014.5
20260903121015 69 360 0.0 1.0 0.00 0.15 0.01 79 1014.4
20260903120516 69 360 0.0 3.0 0.00 0.15 0.01 79 1014.3
20260903120036 69 0 0.0 0.0 0.00 0.18 0.01 79 1014.5
20260903115515 69 0 0.0 0.0 0.00 0.18 0.01 79 1014.3
20260903115015 69 0 0.0 0.0 0.00 0.18 0.01 79 1014.3
20260903114536 69 0 0.0 0.0 0.00 0.18 0.01 79 1014.2
20260903114015 69 360 0.0 0.0 0.01 0.18 0.01 79 1014.3
20260903113515 69 360 0.0 1.0 0.01 0.18 0.01 79 1014.2
20260903113037 69 0 0.0 0.0 0.01 0.18 0.01 79 1014.2
20260903112536 69 0 0.0 0.0 0.01 0.18 0.01 79 1014.1
20260903112015 69 0 0.0 0.0 0.01 0.18 0.01 79 1014.1
20260903111515 69 0 0.0 0.0 0.01 0.18 0.01 79 1014.1
20260903111015 69 0 0.0 0.0 0.01 0.18 0.01 79 1014.1
20260903110536 69 0 0.0 0.0 0.01 0.18 0.01 79 1014.0
20260903110037 68 0 0.0 0.0 0.01 0.18 0.01 79 1013.9
20260903105515 68 0 0.0 0.0 0.01 0.18 0.01 79 1013.9
20260903105016 68 0 0.0 0.0 0.01 0.18 0.01 79 1013.7
20260903104515 68 0 0.0 0.0 0.01 0.18 0.01 79 1013.7
20260903104015 68 0 0.0 0.0 0.00 0.17 0.00 79 1013.7
20260903103515 68 0 0.0 0.0 0.00 0.17 0.00 79 1013.8
20260903103016 68 0 0.0 0.0 0.00 0.17 0.00 79 1013.8
20260903102515 68 0 0.0 0.0 0.00 0.17 0.00 78 1013.8
20260903102015 68 0 0.0 0.0 0.00 0.17 0.00 79 1013.8
20260903101515 68 360 0.0 0.0 0.00 0.17 0.00 78 1013.7
20260903101037 68 360 0.0 3.0 0.00 0.17 0.00 79 1013.7
20260903100515 68 360 0.0 3.0 0.00 0.17 0.00 79 1013.8
20260903100037 68 360 0.0 3.0 0.00 0.17 0.00 78 1013.8
20260903095516 67 360 0.0 3.0 0.00 0.17 0.00 78 1013.8
20260903095015 67 0 0.0 0.0 0.00 0.17 0.00 78 1013.9
20260903094515 67 0 0.0 0.0 0.00 0.17 0.00 78 1013.7
20260903094015 67 0 0.0 0.0 0.00 0.17 0.00 78 1013.7
20260903093515 67 0 0.0 0.0 0.00 0.17 0.00 78 1013.5
20260903093015 67 0 0.0 0.0 0.00 0.17 0.00 78 1013.4
20260903092536 67 0 0.0 0.0 0.00 0.17 0.00 77 1013.3
20260903092015 67 0 0.0 0.0 0.00 0.17 0.00 77 1013.1
20260903091537 67 0 0.0 0.0 0.00 0.17 0.00 77 1013.1
20260903091016 67 0 0.0 0.0 0.00 0.17 0.00 77 1013.0
20260903090515 67 0 0.0 0.0 0.00 0.17 0.00 77 1013.0
20260903090015 67 0 0.0 0.0 0.00 0.17 0.00 77 1013.1
20260903085515 67 0 0.0 0.0 0.00 0.17 0.00 77 1013.1
20260903085015 67 0 0.0 0.0 0.00 0.19 0.00 77 1012.9
20260903084536 67 0 0.0 0.0 0.00 0.19 0.00 77 1013.0
20260903084015 67 0 0.0 0.0 0.00 0.19 0.00 77 1013.0
20260903083536 67 0 0.0 0.0 0.00 0.19 0.00 77 1013.0
20260903083016 67 0 0.0 0.0 0.00 0.19 0.00 77 1012.8
20260903082536 67 0 0.0 0.0 0.00 0.19 0.00 77 1012.7
20260903082015 68 0 0.0 0.0 0.00 0.19 0.00 77 1012.5
20260903081515 68 0 0.0 0.0 0.00 0.19 0.00 77 1012.5
20260903081015 68 0 0.0 0.0 0.00 0.19 0.00 77 1012.7
20260903080537 68 0 0.0 0.0 0.00 0.19 0.00 77 1012.7
20260903080015 68 0 0.0 0.0 0.00 0.19 0.00 77 1012.8
20260903075516 68 0 0.0 0.0 0.00 0.19 0.00 77 1012.8
20260903075016 68 0 0.0 0.0 0.00 0.19 0.00 77 1012.9
20260903074515 68 0 0.0 0.0 0.00 0.19 0.00 77 1012.9
20260903074015 68 0 0.0 0.0 0.00 0.19 0.00 77 1012.8
20260903073515 68 0 0.0 0.0 0.00 0.19 0.00 77 1012.6
20260903073036 68 0 0.0 0.0 0.00 0.19 0.00 77 1012.5
20260903072515 68 0 0.0 0.0 0.00 0.19 0.00 77 1012.5
20260903072015 69 0 0.0 0.0 0.00 0.19 0.00 77 1012.4
20260903071515 69 0 0.0 0.0 0.00 0.19 0.00 77 1012.4
20260903071015 69 0 0.0 0.0 0.00 0.19 0.00 77 1012.5
20260903070515 69 0 0.0 0.0 0.00 0.19 0.00 77 1012.5
20260903070015 69 0 0.0 0.0 0.00 0.19 0.00 77 1012.5
20260903065515 69 0 0.0 0.0 0.00 0.19 0.00 77 1012.6
20260903065015 69 0 0.0 0.0 0.00 0.19 0.00 77 1012.7
20260903064515 69 0 0.0 0.0 0.00 0.19 0.00 75 1012.7
20260903064015 70 0 0.0 0.0 0.00 0.19 0.00 77 1012.7
20260903063515 70 0 0.0 0.0 0.00 0.19 0.00 77 1012.8
20260903063015 69 0 0.0 0.0 0.00 0.19 0.00 75 1012.9
20260903062515 69 0 0.0 0.0 0.00 0.19 0.00 75 1013.1
20260903062015 70 0 0.0 0.0 0.00 0.19 0.00 75 1013.2
20260903061536 70 0 0.0 0.0 0.00 0.19 0.00 75 1013.1
20260903061036 70 0 0.0 0.0 0.00 0.19 0.00 75 1013.2
20260903060516 70 0 0.0 0.0 0.00 0.19 0.00 75 1013.3
20260903060015 70 0 0.0 0.0 0.00 0.19 0.00 75 1013.3
20260903055515 70 0 0.0 0.0 0.00 0.19 0.00 75 1013.4
20260903055015 70 0 0.0 0.0 0.00 0.19 0.00 75 1013.3
20260903054536 70 0 0.0 0.0 0.00 0.19 0.00 75 1013.5
20260903054015 70 0 0.0 0.0 0.00 0.19 0.00 75 1013.4
20260903053515 70 0 0.0 0.0 0.00 0.19 0.00 75 1013.5
20260903053015 70 0 0.0 0.0 0.00 0.19 0.00 75 1013.5
20260903052536 70 0 0.0 0.0 0.00 0.19 0.00 75 1013.5
20260903052015 70 0 0.0 0.0 0.00 0.19 0.00 75 1013.4
20260903051515 70 0 0.0 0.0 0.00 0.19 0.00 75 1013.4
20260903051015 70 0 0.0 0.0 0.00 0.19 0.00 74 1013.2
20260903050515 70 0 0.0 0.0 0.00 0.19 0.00 74 1013.1
20260903050015 70 0 0.0 0.0 0.00 0.19 0.00 74 1013.0
20260903045536 70 0 0.0 0.0 0.00 0.19 0.00 74 1013.0
20260903045015 70 0 0.0 0.0 0.00 0.19 0.00 74 1013.1
20260903044515 70 0 0.0 0.0 0.00 0.19 0.00 74 1013.2
20260903044015 70 0 0.0 0.0 0.00 0.19 0.00 74 1013.2
20260903043515 70 0 0.0 0.0 0.00 0.19 0.00 74 1012.9
20260903043015 70 0 0.0 0.0 0.00 0.19 0.00 74 1012.8
20260903042536 70 0 0.0 0.0 0.00 0.19 0.00 74 1012.7
20260903042015 70 360 0.0 0.0 0.00 0.19 0.00 74 1012.6
20260903041536 70 360 0.0 3.0 0.00 0.19 0.00 74 1012.5
20260903041036 70 0 0.0 0.0 0.00 0.19 0.00 73 1012.5
20260903040536 70 0 0.0 0.0 0.00 0.19 0.00 73 1012.3
20260903040016 70 0 0.0 0.0 0.00 0.19 0.00 73 1012.1
20260903035515 70 0 0.0 0.0 0.00 0.19 0.19 73 1012.2
20260903035015 70 0 0.0 0.0 0.00 0.19 0.19 73 1012.4
20260903034536 70 0 0.0 0.0 0.00 0.19 0.19 73 1012.5
20260903034015 70 360 0.0 0.0 0.00 0.19 0.19 73 1012.3
20260903033515 70 360 0.0 3.0 0.00 0.19 0.19 73 1012.2
20260903033015 70 360 0.0 3.0 0.00 0.19 0.19 73 1012.3
20260903032515 70 360 0.0 0.0 0.00 0.19 0.19 73 1012.2
20260903032036 70 360 0.0 3.0 0.00 0.19 0.19 73 1012.0
20260903031515 70 360 1.0 5.0 0.01 0.19 0.19 73 1012.1
20260903031036 70 360 1.0 4.0 0.04 0.19 0.19 73 1012.1
20260903030515 70 360 1.0 4.0 0.08 0.19 0.19 73 1012.0
20260903030015 70 360 0.0 3.0 0.08 0.19 0.19 73 1012.1
20260903025515 70 0 0.0 0.0 0.08 0.19 0.19 73 1012.3
20260903025015 70 0 0.0 0.0 0.08 0.19 0.19 73 1012.5
20260903024536 70 360 0.0 0.0 0.09 0.19 0.19 73 1012.5
20260903024036 70 360 0.0 1.0 0.09 0.19 0.19 73 1012.8
20260903023536 70 0 0.0 0.0 0.09 0.19 0.19 74 1012.8
20260903023015 70 0 0.0 0.0 0.09 0.19 0.19 74 1012.6
20260903022515 70 360 0.0 0.0 0.09 0.19 0.19 74 1012.7
20260903022015 70 360 2.0 4.0 0.09 0.19 0.19 74 1012.9
20260903021515 70 360 2.0 11.0 0.08 0.18 0.18 74 1012.9
20260903021015 70 360 1.0 4.0 0.05 0.15 0.15 74 1013.6
20260903020515 70 360 1.0 4.0 0.01 0.11 0.11 74 1013.4
20260903020036 70 360 0.0 3.0 0.01 0.11 0.11 74 1013.5
20260903015515 70 360 1.0 1.0 0.01 0.11 0.11 74 1014.0
20260903015015 70 360 1.0 4.0 0.01 0.11 0.11 74 1013.8
20260903014536 70 360 0.0 4.0 0.00 0.10 0.10 74 1013.3
20260903014015 70 360 0.0 1.0 0.00 0.10 0.10 74 1013.1
20260903013515 70 360 1.0 1.0 0.00 0.10 0.10 74 1012.8
20260903013015 70 360 1.0 5.0 0.00 0.10 0.10 75 1012.5
20260903012515 71 360 1.0 3.0 0.01 0.10 0.10 75 1012.8
20260903012015 71 360 1.0 4.0 0.01 0.10 0.10 75 1013.2
20260903011515 71 360 1.0 4.0 0.01 0.10 0.10 75 1013.8
20260903011036 71 360 0.0 1.0 0.01 0.10 0.10 75 1013.3
20260903010536 71 360 0.0 3.0 0.01 0.10 0.10 75 1013.1
20260903010036 71 0 0.0 1.0 0.01 0.10 0.10 75 1012.7
20260903005515 71 360 0.0 0.0 0.01 0.10 0.10 75 1012.7
20260903005036 71 360 1.0 3.0 0.01 0.10 0.10 75 1013.1
20260903004515 71 360 1.0 4.0 0.01 0.10 0.10 75 1013.2
20260903004015 71 360 1.0 3.0 0.01 0.10 0.10 75 1012.8
20260903003515 71 360 0.0 3.0 0.01 0.10 0.10 75 1013.0
20260903003016 71 360 1.0 3.0 0.01 0.10 0.10 75 1013.4
20260903002515 71 360 0.0 4.0 0.00 0.09 0.09 75 1013.3
20260903002015 71 360 1.0 3.0 0.00 0.09 0.09 75 1012.9
20260903001536 71 360 2.0 4.0 0.00 0.09 0.09 75 1012.8
20260903001015 72 360 3.0 5.0 0.00 0.09 0.09 75 1012.7
20260903000536 72 360 3.0 13.0 0.00 0.09 0.09 75 1012.6
20260903000015 72 360 3.0 5.0 0.00 0.09 0.09 75 1012.6
20260902235515 72 360 1.0 5.0 0.00 0.09 0.09 77 1012.5
20260902235015 72 360 0.0 3.0 0.00 0.09 0.09 77 1012.4
20260902234536 72 360 1.0 4.0 0.00 0.09 0.09 77 1012.7
20260902234015 72 360 2.0 4.0 0.00 0.09 0.09 77 1012.7
20260902233536 72 360 2.0 7.0 0.00 0.09 0.09 77 1013.1
20260902233015 72 360 1.0 5.0 0.00 0.09 0.09 77 1013.2
20260902232515 72 0 0.0 0.0 0.00 0.09 0.09 77 1013.3
20260902232036 72 0 0.0 0.0 0.00 0.09 0.09 77 1013.0
20260902231515 72 0 0.0 0.0 0.00 0.09 0.09 77 1012.6
20260902231015 72 0 0.0 0.0 0.00 0.09 0.09 77 1012.6
20260902230537 72 0 0.0 0.0 0.00 0.09 0.09 77 1012.7
20260902230015 72 0 0.0 0.0 0.00 0.09 0.09 77 1012.6
20260902225515 72 0 0.0 0.0 0.01 0.09 0.09 78 1012.4
20260902225036 72 0 0.0 0.0 0.04 0.09 0.09 78 1012.5
20260902224515 72 360 0.0 0.0 0.04 0.09 0.09 78 1012.7
20260902224015 72 360 1.0 4.0 0.04 0.09 0.09 78 1012.7
20260902223515 72 360 1.0 4.0 0.04 0.09 0.09 79 1012.5
20260902223015 72 360 0.0 3.0 0.04 0.09 0.09 79 1012.1
20260902222515 72 360 0.0 0.0 0.04 0.09 0.09 80 1012.0
20260902222016 72 360 0.0 1.0 0.04 0.09 0.09 81 1011.9
20260902221515 72 360 1.0 5.0 0.04 0.09 0.09 81 1012.0
20260902221015 72 360 2.0 4.0 0.04 0.09 0.09 82 1012.3
20260902220515 73 360 2.0 7.0 0.04 0.09 0.09 81 1012.5
20260902220015 74 360 2.0 8.0 0.04 0.09 0.09 79 1012.4
20260902215515 75 360 5.0 7.0 0.03 0.09 0.09 77 1012.4
20260902215015 76 360 7.0 19.0 0.00 0.06 0.06 52 1013.4
20260902214515 79 359 7.0 19.0 0.00 0.06 0.06 70 1013.7
20260902214015 82 356 7.0 20.0 0.00 0.06 0.06 66 1013.7
20260902213515 85 344 4.0 23.0 0.00 0.06 0.06 66 1012.6
20260902213036 87 307 1.0 7.0 0.00 0.06 0.06 74 1012.5
20260902212515 87 248 1.0 5.0 0.00 0.06 0.06 74 1011.3
20260902212036 87 257 2.0 8.0 0.00 0.06 0.06 74 1011.2
20260902211515 87 282 0.0 4.0 0.00 0.06 0.06 74 1011.4
20260902211015 87 0 0.0 0.0 0.00 0.06 0.06 73 1011.6
20260902210515 87 0 0.0 0.0 0.00 0.06 0.06 73 1011.8
20260902210015 86 0 0.0 0.0 0.00 0.06 0.06 71 1011.9
20260902205537 86 0 0.0 0.0 0.00 0.06 0.06 69 1012.0
20260902205015 86 0 0.0 0.0 0.00 0.06 0.06 67 1011.6
20260902204536 86 0 0.0 0.0 0.00 0.06 0.06 66 1011.6
20260902204016 86 0 0.0 0.0 0.00 0.06 0.06 63 1011.7
20260902203515 86 334 0.0 0.0 0.00 0.06 0.06 62 1012.0
20260902203015 86 313 2.0 5.0 0.00 0.06 0.06 63 1012.1
20260902202536 87 311 4.0 13.0 0.00 0.06 0.06 60 1012.3
20260902202015 88 304 5.0 19.0 0.00 0.06 0.06 60 1012.6
20260902201515 90 297 2.0 19.0 0.00 0.06 0.06 61 1013.0
20260902201015 91 269 0.0 1.0 0.00 0.06 0.06 61 1012.4
20260902200515 91 282 1.0 5.0 0.00 0.06 0.06 40 1012.4
20260902200015 91 286 1.0 8.0 0.00 0.06 0.06 62 1012.7
20260902195536 92 291 1.0 4.0 0.00 0.06 0.06 63 1012.4
20260902195015 92 256 3.0 9.0 0.00 0.06 0.06 62 1012.5
20260902194515 92 248 3.0 12.0 0.00 0.06 0.06 62 1012.6
20260902194015 92 294 3.0 11.0 0.00 0.06 0.06 62 1012.7
20260902193516 92 301 3.0 12.0 0.00 0.06 0.06 61 1012.6
20260902193015 91 295 1.0 7.0 0.00 0.06 0.06 62 1012.8
20260902192515 91 293 1.0 7.0 0.00 0.06 0.06 63 1012.7
20260902192015 91 276 2.0 12.0 0.00 0.06 0.06 42 1012.8
20260902191515 90 286 2.0 9.0 0.00 0.06 0.06 67 1012.8
20260902191015 90 292 2.0 7.0 0.00 0.06 0.06 66 1012.8
20260902190515 90 283 2.0 8.0 0.00 0.06 0.06 67 1012.9
20260902190015 90 279 1.0 9.0 0.00 0.06 0.06 66 1012.9
20260902185515 90 284 1.0 5.0 0.00 0.06 0.06 67 1012.9
20260902185015 89 213 3.0 5.0 0.00 0.06 0.06 67 1013.0
20260902184515 89 228 3.0 13.0 0.00 0.06 0.06 67 1013.0
20260902184015 89 290 2.0 8.0 0.00 0.06 0.06 69 1013.1
20260902183536 89 297 1.0 8.0 0.00 0.06 0.06 69 1013.1
20260902183015 89 291 1.0 3.0 0.00 0.06 0.06 70 1013.2
20260902182535 88 277 2.0 12.0 0.00 0.06 0.06 69 1013.2
20260902182015 88 268 1.0 8.0 0.00 0.06 0.06 48 1013.2
20260902181514 88 282 1.0 7.0 0.00 0.06 0.06 70 1013.3
20260902181015 88 269 1.0 8.0 0.00 0.06 0.06 71 1013.3
20260902180514 88 249 2.0 4.0 0.00 0.06 0.06 71 1013.3
20260902180015 88 270 3.0 8.0 0.00 0.06 0.06 71 1013.3
20260902175514 87 284 4.0 12.0 0.00 0.06 0.06 71 1013.5
20260902175015 88 297 3.0 12.0 0.00 0.06 0.06 71 1013.4
20260902174536 88 322 2.0 9.0 0.00 0.06 0.06 72 1013.2
20260902174014 87 259 2.0 7.0 0.00 0.06 0.06 72 1013.1
20260902173514 87 205 2.0 7.0 0.00 0.06 0.06 73 1013.1
20260902173015 87 189 4.0 8.0 0.00 0.06 0.06 73 1013.2
20260902172514 87 193 4.0 11.0 0.00 0.06 0.06 72 1013.4
20260902172035 87 212 3.0 8.0 0.00 0.06 0.06 72 1013.6
20260902171514 87 169 3.0 5.0 0.00 0.06 0.06 73 1013.8
20260902171014 86 168 3.0 12.0 0.00 0.06 0.06 73 1014.0
20260902170514 86 186 3.0 12.0 0.00 0.06 0.06 73 1014.0
20260902170036 86 184 4.0 8.0 0.00 0.06 0.06 73 1014.1
20260902165536 86 186 4.0 11.0 0.00 0.06 0.06 72 1014.2
20260902165015 86 183 4.0 9.0 0.00 0.06 0.06 73 1014.2
20260902164535 86 198 4.0 11.0 0.00 0.06 0.06 51 1014.3
20260902164035 86 233 3.0 11.0 0.00 0.06 0.06 72 1014.4
20260902163514 85 240 1.0 8.0 0.00 0.06 0.06 72 1014.4
20260902163014 85 230 1.0 4.0 0.00 0.06 0.06 72 1014.5
20260902162515 84 223 2.0 5.0 0.00 0.06 0.06 72 1014.6
20260902162015 84 218 2.0 11.0 0.00 0.06 0.06 72 1014.6
20260902161514 84 213 2.0 5.0 0.00 0.06 0.06 72 1014.6
20260902161035 83 195 3.0 7.0 0.00 0.06 0.06 72 1014.5
20260902160514 83 172 4.0 7.0 0.00 0.06 0.06 72 1014.6
20260902160035 82 162 5.0 8.0 0.00 0.06 0.06 72 1014.7
20260902155515 81 165 5.0 12.0 0.00 0.06 0.06 72 1014.6
20260902155015 81 169 4.0 8.0 0.00 0.06 0.06 72 1014.7
20260902154514 81 168 4.0 11.0 0.00 0.06 0.06 71 1014.7
20260902154014 81 171 4.0 9.0 0.00 0.06 0.06 70 1014.7
20260902153514 80 166 5.0 11.0 0.00 0.06 0.06 70 1014.7
20260902153035 80 152 5.0 13.0 0.00 0.06 0.06 70 1014.7
20260902152514 79 31 6.0 12.0 0.00 0.06 0.06 71 1014.7